Location: Chateh
(58.6667°N, 118.6000°W)
Time: 10:00:27
(UTC+00:00)

O/OREOS (USA 219) - Pass Details

Date: 11 December 2023
Orbit: 621 x 646 km, 72.0° (Epoch: 22 May)

Event Time Altitude Azimuth Distance (km) Brightness Sun altitude
Exits shadow 13:29:15 22° 353° (N) 1,391 ? -21.8°
Maximum altitude 13:31:12 30° 35° (NE) 1,129 ? -21.6°
Drops below altitude 10° 13:35:13 10° 98° (E) 2,015 ? -21.1°
Sets 13:37:43 0° 109° (ESE) 2,924 ? -20.8°
